Location: Middelsbur
(53.6609°N, 7.5020°E)
Time: 23:53:24
(UTC+00:00)

ATLAS CENTAUR R/B - Pass Details

Date: 06 July 2020
Orbit: 475 x 672 km, 64.7° (Epoch: 13 July)

Event Time Altitude Azimuth Distance (km) Brightness Sun altitude
Rises 21:53:17 0° 305° (NW) 2,570 5.8 -10.7°
Reaches altitude 10° 21:56:02 10° 284° (WNW) 1,665 4.3 -10.8°
Maximum altitude 21:58:24 16° 244° (WSW) 1,304 3.2 -11.0°
Drops below altitude 10° 22:00:44 10° 204° (SSW) 1,642 3.3 -11.1°
Enters shadow 22:00:56 - 201° (SSW) 1,697 3.4 -11.1°
